Погода в Джонке

Россия / Хабаровский край     49°40′23″N   136°56′36″E
темп.,
°C
ветер,
м/с
пор.,
м/с
влажн.,
%
обл.,
%
осадки,
мм/ч
давл.,
гПа
погр.,
м
10 апреля, сб
сб1001:00−1ю36745 0.0 1023102
04:00−2ю37735 0.0 1022128
07:00−1ю39711 0.0 1023234
10:00+4юз69530 0.0 1023584
13:00+9юз79371 0.0 10221284
16:00+11ююз79325 0.0 10201376
19:00+8ююз612445 0.0 1020259
22:00+5ю512565 0.0 1021175
11 апреля, вс
вс1101:00+4ю513546 0.0 1021226
04:00+5ююз6145191 0.0 1020301
07:00+5ююз71550100 0.0 1020401
10:00+5юз51366100 0.6 1020608
13:00+7юз81363100 0.8 1019839
16:00+7ююз71277100 0.8 1019594
19:00+6ююз61280100 0.0 1018341
22:00+5ю4888100 0.0 1019127
12 апреля, пн
пн1201:00+4всв2294100 0.0 101828
04:00+4юв1196100 1.1 101714
07:00+4юз2398100 0.8 1017110
10:00+4зюз2295100 1.1 1016117
13:00+4з0192100 0.6 1015222
16:00+3св2397100 5.8 1013403
19:00+1ссв4899100 6.8 1012256
22:000ссв61198100 11.0 1010469
13 апреля, вт
вт1301:00−3ссв71393100 1.2 1008401
04:00−4ссв91494100 3.9 1007578
07:00−4с81494100 3.3 1006657
10:00−4с81290100 4.1 1008773
13:00−2ссв6780100 0.3 1008953
16:00−1св4573100 0.4 1008943
19:00−1св248195 0.1 1007139
22:00−5с379368 0.1 1008132
14 апреля, ср
ср1401:00−5с4992100 0.0 1007360
04:00−5ссв4890100 0.0 1008351
07:00−7св399065 0.0 1009342
10:00−2с356678 0.0 10101137
13:00−1зюз346278 0.1 10111165
16:000юз345930 0.1 10111018
19:00−2ю248567 0.0 1012132
22:00−3ююв3782100 0.0 1013127